User: anonymous   Login
Location: Unspecified
(0.0000°N, 0.0000°E)
Time: 05:16:42
(UTC+00:00)
Language:

HODOYOSHI 1 - Orbit

View from above orbital plane
View from above orbital plane
View from above satellite
View from above satellite

Ground track
Ground track

The orbit data is extracted from the following two-line orbital elements,

1 40299U 14070B   19083.80237081  .00000467  00000-0  22648-4 0  9999
2 40299  97.3532 165.3291 0012779 353.2598 155.2372 15.23253651243190
Epoch (UTC): 24 March 2019 19:15:24
Eccentricity: 0.0012779
inclination: 97.3532°
perigee height: 487 km
apogee height: 505 km
right ascension of ascending node: 165.3291°
argument of perigee: 353.2598°
revolutions per day: 15.23253651
mean anomaly at epoch: 155.2372°
orbit number at epoch: 24319

The dashed part of the orbit path shows where the satellite is in the earth's shadow,  

DLR